Volver al catálogo

DELTA 1 DEB

ActivoPO
NORAD 8678·DEBRIS·🇺🇸 United States

Lanzado Jan 22, 1975 desde Vandenberg Space Force Base

Loading…

Próximos Pases (próximas 24 horas)

TLE

ActualizadoSource: Space-Track

Época: Sep 13, 2026, 11:50 UTC

1 08678U 75004F   26256.49367949  .00000055  00000-0  43914-4 0  9992
2 08678  97.6351 236.1437 0173244 245.3222 112.9828 14.10386333651037

Sigue DELTA 1 DEB en tiempo real con AllMySat

Download on the App Store